Skip Navigation Links
NOAA logo - Click to go to the NOAA homepage
NOAA's National Weather Service
Alaska Aviation Weather Unit
  NWS logo - Click to go to the NWS homepage
Left Navbar Graphic     09 AKDT = 17 GMT

   
NOAA is celebrating 200 years of science, service, and stewardship. Visit the NOAA 200th celebration Web site to learn more.
USA.gov is the U.S. Government's official Web portal to all Federal, state and local government Web resources and services.
Facebook
NWS on Facebook

Important Change Regarding the AAWU Web Presence

 

Over the last several months, the AAWU has been working to navigate its webpages to a nationally supported server. Security, as well as other needs, have necessitated the change.  In the process, we have made an effort to enhance the functionality of our website, as well as some of our products. As of June 20, 2017, aawu.arh.noaa.gov will be discontinued. The new AAWU web address is weather.gov/aawu. It is now live and will run in-parallel with the old site until it is discontinued. Please send any feedback or questions regarding the new webpages to nws.ar.aawu.webauthors@noaa.gov.  Thank you for your patience during this time of transition.
AAWU Home :: Display TAF Add Bookmark
METAR PAPN 271156Z AUTO 11006KT 10SM SCT055 BKN065 OVC090 04/03
 A2990 RMK AO2 SLP126 60000 70015 T00390028 10067 20039 57006=

METAR PAPN 271256Z AUTO 10009KT 10SM FEW060 BKN080 BKN090 04/02
 A2989 RMK AO2 SLP124 T00390022=

METAR PAPN 271356Z AUTO 10011KT 10SM BKN060 OVC075 04/03 A2988 RMK
 AO2 SLP121 T00440028=

METAR PAPN 271456Z AUTO 09009KT 10SM FEW047 SCT060 04/03 A2988 RMK
 AO2 SLP121 T00440028 56005=

METAR PAPN 271556Z AUTO 10010KT 10SM -RA BKN045 OVC050 05/03 A2988
 RMK AO2 RAB12 SLP121 P0000 T00500033=

METAR PAPN 271656Z AUTO 10013KT 10SM SCT049 BKN090 06/03 A2988 RMK
 AO2 RAE29 SLP121 P0000 T00560033=


NOAA's National Weather Service
Alaska Aviation Weather Unit
6930 Sand Lake Road
Anchorage, AK 99502-1845
Disclaimer
Credits
Glossary
Privacy Policy
About Us
Career Opportunities
Contact AAWU Internet Services Site last modified: April, 17th 2012